Weather in Terskoye

Russia / Chechen Republic     43°33′06″N   45°35′54″E
temp.,
°C
wind,
m/s
gust,
m/s
humid.,
%
clouds,
%
prec.,
mm/h
press.,
hPa
HPBL,
m
18 april, sun
sun1800:00+12nw3676100 0.0 1021181
03:00+11nw1185100 0.0 102133
06:00+11ssw0184100 0.0 102062
09:00+15e3465100 0.0 1018652
12:00+19ne334991 0.0 10171152
15:00+21e444771 0.4 10161249
18:00+18ese3461100 0.3 1016162
21:00+14e357226 0.3 1016104
19 april, mon
mon1900:00+12ese3570100 0.1 1017104
03:00+12ese1167100 0.1 101714
06:00+12ese2368100 0.0 101670
09:00+17ene355262 0.0 1016445
12:00+22ene55437 0.0 10151078
15:00+23e674161 0.0 10141521
18:00+18e685226 0.0 1014462
21:00+14se366099 0.0 1015141
20 april, tue
tue2000:00+12ne1166100 0.0 101426
03:00+11ese227323 0.0 101363
06:00+11e2373100 0.0 101288
09:00+17ese5758100 0.0 1009307
12:00+24e5642100 0.0 1006596
15:00+26ene6741100 0.0 1004589
18:00+20ene3461100 0.0 1004163
21:00+15nw4681100 0.3 1008226
21 april, wed
wed2100:00+16nw51087100 1.5 1008195
03:00+15wnw61190100 1.5 1013528
06:00+14wnw6979100 0.1 1015730
09:00+13wnw5875100 0.1 1018881
12:00+12nw4780100 0.1 1020852
15:00+11nnw3577100 0.2 1021634
18:00+11w2382100 0.1 1022249
21:00+11w3481100 0.1 1023219
22 april, thu
thu2200:00+10wnw2483100 0.0 1023187
03:00+10wnw2384100 0.0 1022125
06:00+10wnw1283100 0.0 102372
09:00+12nnw227696 0.0 1023357
12:00+14nnw436699 0.0 1022867
15:00+14nnw546594 0.0 1022893
18:00+12nw3480100 0.0 1022336
21:00+10w2394100 4.5 1022191